FW1704 Weather Reports


Display with metric or nautical units.
time (UTC)temp
F
wind
direction
speed
MPH
gust
MPH
rain 1hr
in
rain 24hr
in
rain mn
in
humidity
%
barometer
mb
20260510142051 68 89 1.0 5.0 0.01 1.64 0.09 95 1017.9
20260510141558 68 143 1.0 4.0 0.01 1.64 0.09 95 1017.9
20260510141050 68 48 1.0 4.0 0.01 1.64 0.09 95 1018.0
20260510140549 68 0 2.0 4.0 0.01 1.64 0.09 94 1018.1
20260510140057 68 149 0.0 4.0 0.01 1.64 0.09 95 1018.0
20260510135552 68 88 1.0 4.0 0.01 2.19 0.09 95 1017.7
20260510135053 68 0 1.0 4.0 0.01 2.19 0.09 95 1017.7
20260510134604 67 326 1.0 4.0 0.01 2.19 0.09 95 1017.6
20260510134050 67 11 0.0 5.0 0.01 2.19 0.09 95 1017.8
20260510133553 67 85 1.0 5.0 0.00 2.18 0.08 95 1017.6
20260510133054 67 52 0.0 4.0 0.00 2.18 0.08 95 1017.4
20260510132551 67 69 1.0 4.0 0.00 2.18 0.08 95 1017.5
20260510132052 67 56 0.0 4.0 0.00 2.18 0.08 95 1017.4
20260510131553 67 82 1.0 4.0 0.01 2.18 0.08 95 1017.4
20260510131051 67 0 1.0 3.0 0.01 2.18 0.08 95 1017.4
20260510130552 67 30 0.0 3.0 0.01 2.18 0.08 95 1017.1
20260510130056 66 46 1.0 3.0 0.01 2.18 0.08 95 1017.0
20260510125551 66 109 1.0 5.0 0.01 2.49 0.08 95 1016.9
20260510125050 66 0 1.0 5.0 0.01 2.49 0.08 95 1017.1
20260510124559 66 75 1.0 4.0 0.01 2.49 0.08 95 1017.0
20260510124050 66 60 1.0 4.0 0.01 2.49 0.08 95 1016.9
20260510123625 66 105 1.0 3.0 0.01 2.49 0.08 95 1016.8
20260510123117 66 134 0.0 3.0 0.01 2.49 0.08 95 1016.8
20260510122549 66 63 1.0 3.0 0.01 2.49 0.08 94 1016.6
20260510122052 65 0 0.0 3.0 0.01 2.49 0.08 94 1016.6
20260510121556 65 136 0.0 3.0 0.00 2.48 0.07 94 1016.6
20260510121049 65 71 1.0 4.0 0.00 2.48 0.07 95 1016.4
20260510120550 65 140 0.0 4.0 0.00 2.48 0.07 95 1016.3
20260510120059 65 0 2.0 4.0 0.01 2.48 0.07 95 1016.1
20260510115551 65 82 2.0 4.0 0.01 2.48 0.07 95 1016.0
20260510115052 65 62 1.0 4.0 0.01 2.48 0.07 95 1016.1
20260510114602 65 40 0.0 4.0 0.01 2.48 0.07 95 1016.0
20260510114052 65 0 1.0 3.0 0.01 2.48 0.07 95 1015.8
20260510113549 65 62 1.0 3.0 0.01 2.48 0.07 95 1015.6
20260510113056 65 258 0.0 3.0 0.01 2.48 0.07 95 1015.7
20260510112550 65 67 1.0 3.0 0.01 2.48 0.07 95 1015.5
20260510112050 65 0 0.0 3.0 0.01 2.48 0.07 94 1015.4
20260510111557 65 0 0.0 4.0 0.01 2.48 0.07 94 1015.3
20260510111049 65 78 1.0 4.0 0.01 2.48 0.07 94 1015.1
20260510110548 65 50 0.0 3.0 0.01 2.48 0.07 94 1014.9
20260510110058 65 0 0.0 2.0 0.00 2.47 0.06 95 1014.9
20260510105553 65 47 0.0 3.0 0.00 2.48 0.06 94 1014.8
20260510105050 65 92 0.0 3.0 0.01 2.48 0.06 94 1014.6
20260510104555 65 92 1.0 3.0 0.01 2.48 0.06 94 1014.5
20260510104051 65 67 1.0 3.0 0.01 2.48 0.06 94 1014.6
20260510103551 65 95 1.0 3.0 0.01 2.48 0.06 94 1014.4
20260510103108 65 0 0.0 3.0 0.01 2.48 0.06 94 1014.5
20260510102551 65 102 0.0 2.0 0.01 2.48 0.06 94 1014.4
20260510102049 65 0 0.0 2.0 0.01 2.48 0.06 94 1014.4
20260510101605 65 61 1.0 4.0 0.01 2.48 0.06 94 1014.3
20260510101049 65 77 0.0 4.0 0.01 2.48 0.06 94 1014.2
20260510100553 65 99 1.0 4.0 0.01 2.48 0.06 94 1014.2
20260510100104 65 76 1.0 4.0 0.01 2.48 0.06 94 1014.1
20260510095550 65 78 1.0 3.0 0.00 2.50 0.05 94 1014.0
20260510095049 65 88 0.0 3.0 0.01 2.50 0.05 94 1014.0
20260510094556 65 0 1.0 3.0 0.01 2.50 0.05 94 1014.0
20260510094049 65 0 1.0 4.0 0.01 2.50 0.05 94 1013.9
20260510093549 65 90 1.0 4.0 0.01 2.50 0.05 94 1013.9
20260510093056 65 65 1.0 4.0 0.01 2.50 0.05 94 1013.9
20260510092553 65 13 2.0 4.0 0.01 2.50 0.05 94 1014.0
20260510092049 66 75 2.0 4.0 0.01 2.50 0.05 94 1013.9
20260510091556 66 77 1.0 4.0 0.01 2.50 0.05 94 1014.0
20260510091050 66 82 1.0 3.0 0.01 2.50 0.05 94 1014.1
20260510090550 66 69 1.0 3.0 0.01 2.50 0.05 94 1014.2
20260510090055 66 87 0.0 2.0 0.01 2.50 0.05 94 1014.2
20260510085549 66 0 0.0 4.0 0.01 2.61 0.05 94 1014.2
20260510085049 66 46 1.0 4.0 0.01 2.60 0.04 94 1014.2
20260510084552 66 10 0.0 3.0 0.01 2.60 0.04 94 1014.1
20260510084050 66 0 0.0 2.0 0.01 2.60 0.04 94 1014.1
20260510083550 66 53 0.0 3.0 0.01 2.60 0.04 94 1014.1
20260510083055 66 84 0.0 4.0 0.01 2.60 0.04 94 1014.1
20260510082551 66 59 1.0 4.0 0.01 2.60 0.04 94 1014.1
20260510082050 66 61 1.0 4.0 0.01 2.60 0.04 94 1013.9
20260510081557 66 50 1.0 3.0 0.01 2.60 0.04 94 1014.0
20260510081053 66 5 1.0 3.0 0.01 2.60 0.04 94 1013.9
20260510080550 66 61 0.0 3.0 0.01 2.60 0.04 94 1013.8
20260510080055 66 5 0.0 2.0 0.01 2.60 0.04 94 1013.8
20260510075553 66 0 0.0 2.0 0.02 2.77 0.04 94 1013.7
20260510075054 66 0 0.0 2.0 0.01 2.76 0.03 94 1013.6
20260510074602 66 88 0.0 2.0 0.01 2.76 0.03 94 1013.6
20260510074050 66 0 0.0 2.0 0.01 2.76 0.03 94 1013.7
20260510073551 66 88 0.0 2.0 0.01 2.76 0.03 94 1013.6
20260510073103 66 88 0.0 2.0 0.01 2.76 0.03 94 1013.6
20260510072553 66 0 0.0 3.0 0.01 2.76 0.03 94 1013.7
20260510072055 66 0 0.0 3.0 0.01 2.76 0.03 94 1013.6
20260510071552 66 0 0.0 2.0 0.01 2.76 0.03 94 1013.6
20260510071052 66 5 0.0 2.0 0.01 2.76 0.03 94 1013.6
20260510070551 66 65 1.0 3.0 0.01 2.76 0.03 94 1013.5
20260510070057 66 80 0.0 3.0 0.02 2.76 0.03 94 1013.6
20260510065552 66 59 1.0 4.0 0.01 2.77 0.02 94 1013.6
20260510065052 66 0 1.0 4.0 0.01 2.77 0.02 94 1013.6
20260510064553 66 117 1.0 3.0 0.01 2.77 0.02 94 1013.6
20260510064051 66 0 1.0 2.0 0.01 2.77 0.02 94 1013.8
20260510063550 66 72 0.0 3.0 0.01 2.77 0.02 94 1013.8
20260510063055 66 0 0.0 3.0 0.01 2.77 0.02 94 1013.9
20260510062550 66 26 1.0 3.0 0.01 2.77 0.02 94 1014.0
20260510062049 66 0 0.0 3.0 0.01 2.77 0.02 94 1013.8
20260510061603 66 0 0.0 2.0 0.01 2.77 0.02 94 1013.9
20260510061055 66 0 0.0 1.0 0.02 2.77 0.02 94 1013.9
20260510060552 66 0 0.0 1.0 0.02 2.77 0.02 94 1013.9
20260510060054 67 88 0.0 2.0 0.01 2.76 0.01 94 1014.0
20260510055551 67 0 0.0 2.0 0.01 3.19 0.01 94 1014.0
20260510055050 67 69 0.0 2.0 0.01 3.19 0.01 94 1014.0
20260510054600 67 0 0.0 3.0 0.01 3.19 0.01 94 1014.0
20260510054051 67 46 0.0 3.0 0.01 3.19 0.01 94 1014.0
20260510053551 67 45 0.0 2.0 0.01 3.19 0.01 94 1013.9
20260510053055 67 0 0.0 1.0 0.01 3.19 0.01 94 1013.8
20260510052551 67 0 0.0 1.0 0.02 3.19 0.01 94 1013.9
20260510052050 67 0 0.0 1.0 0.02 3.19 0.01 94 1013.9
20260510051554 67 45 0.0 1.0 0.02 3.19 0.01 94 1014.0
20260510051053 67 0 0.0 2.0 0.01 3.18 0.00 94 1013.8
20260510050552 67 0 0.0 2.0 0.01 3.18 0.00 94 1014.0
20260510050055 67 84 0.0 1.0 0.01 3.18 0.00 94 1013.9
20260510045553 67 0 0.0 1.0 0.01 3.18 3.18 94 1014.0
20260510045050 67 0 0.0 1.0 0.01 3.18 3.18 94 1013.9
20260510044556 67 0 0.0 2.0 0.02 3.18 3.18 94 1013.9
20260510044052 67 0 0.0 2.0 0.02 3.18 3.18 94 1013.9
20260510043552 67 0 1.0 2.0 0.02 3.18 3.18 94 1013.8
20260510043056 67 0 0.0 2.0 0.02 3.18 3.18 94 1013.6
20260510042556 67 98 0.0 2.0 0.01 3.17 3.17 94 1013.8
20260510042051 68 98 0.0 2.0 0.01 3.17 3.17 94 1013.7
20260510041634 68 0 0.0 3.0 0.01 3.17 3.17 94 1013.8
20260510041050 68 327 0.0 3.0 0.02 3.17 3.17 94 1013.8
20260510040550 68 318 1.0 3.0 0.02 3.17 3.17 94 1013.8
20260510040056 68 266 0.0 3.0 0.02 3.17 3.17 94 1013.6
20260510035549 68 85 1.0 5.0 0.02 3.17 3.17 94 1013.2
20260510035052 68 109 1.0 5.0 0.02 3.17 3.17 94 1013.3
20260510034558 68 160 1.0 3.0 0.01 3.16 3.16 94 1013.6
20260510034055 68 131 0.0 2.0 0.01 3.16 3.16 94 1014.0
20260510033552 68 296 0.0 1.0 0.02 3.16 3.16 94 1014.2
20260510033116 68 296 0.0 1.0 0.02 3.16 3.16 94 1014.4
20260510032549 68 0 0.0 1.0 0.02 3.16 3.16 94 1014.6
20260510032052 68 0 0.0 2.0 0.02 3.16 3.16 94 1014.5
20260510031557 68 0 0.0 2.0 0.02 3.16 3.16 94 1014.5
20260510031053 68 295 0.0 2.0 0.02 3.15 3.15 94 1014.6
20260510030549 68 295 0.0 2.0 0.02 3.15 3.15 94 1014.5
20260510030056 68 81 1.0 2.0 0.02 3.15 3.15 94 1014.2
20260510025552 68 350 1.0 2.0 0.02 3.15 3.15 94 1014.4
20260510025054 68 5 0.0 2.0 0.02 3.15 3.15 94 1014.2
20260510024609 68 0 0.0 2.0 0.03 3.15 3.15 94 1014.1
20260510024053 68 109 0.0 2.0 0.03 3.15 3.15 94 1013.9
20260510023549 68 0 0.0 2.0 0.02 3.14 3.14 94 1013.9
20260510023100 68 123 0.0 2.0 0.02 3.14 3.14 94 1013.7
20260510022553 68 123 1.0 2.0 0.02 3.14 3.14 94 1013.8
20260510022052 68 123 0.0 2.0 0.03 3.14 3.14 94 1013.9
20260510021602 68 0 0.0 2.0 0.03 3.14 3.14 94 1013.9
20260510021053 68 0 0.0 2.0 0.02 3.13 3.13 94 1014.0
20260510020554 68 117 0.0 6.0 0.02 3.13 3.13 94 1013.9
20260510020114 68 165 1.0 6.0 0.03 3.13 3.13 94 1014.1
20260510015552 68 333 2.0 6.0 0.03 3.13 3.13 94 1014.3
20260510015051 68 306 2.0 4.0 0.03 3.13 3.13 94 1014.2
20260510014616 68 305 1.0 4.0 0.03 3.12 3.12 94 1013.7
20260510014051 68 292 1.0 4.0 0.03 3.12 3.12 94 1013.5
20260510013551 68 316 1.0 4.0 0.03 3.12 3.12 94 1013.2
20260510013105 68 223 1.0 4.0 0.03 3.12 3.12 94 1012.9
20260510012555 68 0 0.0 8.0 0.04 3.12 3.12 94 1012.8
20260510012053 68 234 1.0 8.0 0.03 3.11 3.11 94 1013.0
20260510011607 68 161 1.0 5.0 0.03 3.11 3.11 94 1012.9
20260510011052 68 146 1.0 5.0 0.04 3.11 3.11 94 1012.8
20260510010552 68 117 1.0 5.0 0.04 3.11 3.11 94 1012.9
20260510010056 68 190 0.0 4.0 0.03 3.10 3.10 94 1012.9
20260510005552 68 141 1.0 4.0 0.04 3.11 3.10 94 1012.8
20260510005053 68 200 1.0 3.0 0.04 3.11 3.10 94 1013.1
20260510004606 68 120 0.0 2.0 0.03 3.10 3.09 94 1013.3
20260510004051 68 125 1.0 3.0 0.04 3.10 3.09 94 1013.4
20260510003553 68 0 0.0 4.0 0.04 3.10 3.09 94 1013.5
20260510003056 68 339 2.0 5.0 0.04 3.10 3.09 94 1013.6
20260510002550 68 237 0.0 5.0 0.04 3.09 3.08 94 1013.2
20260510002049 68 217 1.0 5.0 0.04 3.09 3.08 94 1012.7
20260510001556 68 105 1.0 4.0 0.05 3.09 3.08 94 1012.5
20260510001052 68 138 1.0 4.0 0.04 3.08 3.07 94 1012.3
20260510000554 68 0 2.0 4.0 0.04 3.08 3.07 94 1012.3
20260510000056 68 87 0.0 2.0 0.05 3.08 3.07 94 1012.5
20260509235648 68 87 0.0 2.0 0.04 3.07 3.06 94 1012.8
20260509235052 68 139 0.0 2.0 0.05 3.07 3.06 94 1013.3
20260509234554 68 248 0.0 2.0 0.05 3.07 3.06 94 1013.4
20260509234052 68 0 0.0 2.0 0.05 3.06 3.05 94 1013.2
20260509233549 68 112 1.0 2.0 0.05 3.06 3.05 94 1012.9
20260509233053 68 178 0.0 2.0 0.06 3.06 3.05 94 1013.2
20260509232553 68 0 0.0 2.0 0.05 3.05 3.04 94 1013.5
20260509232049 68 0 0.0 2.0 0.06 3.05 3.04 94 1013.6
20260509231604 68 0 0.0 2.0 0.06 3.04 3.03 94 1013.1
20260509231052 68 0 0.0 0.0 0.06 3.04 3.03 94 1013.1
20260509230554 68 0 0.0 2.0 0.07 3.04 3.03 94 1013.1
20260509230058 68 0 0.0 2.0 0.06 3.03 3.02 94 1013.3
20260509225552 68 0 0.0 2.0 0.07 3.14 3.02 94 1013.5
20260509225051 68 254 0.0 2.0 0.07 3.13 3.01 94 1013.3
20260509224556 67 355 1.0 2.0 0.07 3.13 3.01 94 1012.7
20260509224051 68 234 0.0 3.0 0.07 3.12 3.00 94 1012.7
20260509223552 67 234 0.0 3.0 0.08 3.12 3.00 94 1012.7
20260509223056 67 244 1.0 3.0 0.08 3.11 2.99 94 1012.5
20260509222549 67 0 0.0 3.0 0.08 3.11 2.99 94 1011.9
20260509222049 67 46 1.0 3.0 0.08 3.10 2.98 94 1012.0
20260509221553 67 163 0.0 3.0 0.08 3.09 2.97 94 1012.2
20260509221050 67 0 1.0 3.0 0.09 3.09 2.97 94 1012.7
20260509220550 67 298 1.0 3.0 0.08 3.08 2.96 94 1012.9
20260509220058 67 0 1.0 2.0 0.08 3.07 2.95 94 1013.0
20260509215554 67 52 0.0 3.0 0.09 3.13 2.95 94 1012.8
20260509215052 67 0 0.0 3.0 0.09 3.12 2.94 94 1012.6
20260509214556 67 208 0.0 3.0 0.09 3.11 2.93 94 1012.6
20260509214053 67 184 0.0 3.0 0.10 3.11 2.93 94 1012.4
20260509213551 67 130 1.0 3.0 0.10 3.10 2.92 94 1012.4
20260509213055 67 0 1.0 2.0 0.10 3.09 2.91 94 1012.5
20260509212552 67 0 0.0 3.0 0.11 3.09 2.91 94 1012.4
20260509212052 67 0 1.0 3.0 0.11 3.08 2.90 94 1012.5
20260509211558 67 267 0.0 4.0 0.10 3.07 2.89 94 1012.5
20260509211050 67 0 2.0 4.0 0.10 3.06 2.88 94 1012.2
20260509210552 67 315 2.0 4.0 0.11 3.06 2.88 94 1011.8
20260509210105 67 267 1.0 6.0 0.11 3.05 2.87 94 1011.2
20260509205551 67 0 1.0 6.0 0.11 3.24 2.86 94 1011.1
20260509205051 67 82 1.0 4.0 0.11 3.23 2.85 94 1011.2
20260509204553 67 150 1.0 5.0 0.11 3.22 2.84 94 1011.5
20260509204052 67 0 2.0 6.0 0.11 3.21 2.83 94 1011.8
20260509203554 68 98 1.0 6.0 0.11 3.20 2.82 94 1011.9
20260509203054 68 272 2.0 4.0 0.11 3.19 2.81 94 1011.8
20260509202556 67 165 1.0 4.0 0.11 3.18 2.80 94 1011.6
20260509202053 67 155 1.0 4.0 0.11 3.17 2.79 94 1011.9
20260509201552 67 107 1.0 3.0 0.11 3.16 2.78 94 1012.2
20260509201052 67 107 1.0 4.0 0.11 3.15 2.77 94 1012.5
20260509200553 67 85 1.0 5.0 0.11 3.14 2.76 94 1013.0
20260509200056 67 146 1.0 5.0 0.12 3.14 2.76 94 1013.4
20260509195553 67 144 1.0 4.0 0.12 3.23 2.75 94 1013.6
20260509195049 67 250 1.0 4.0 0.11 3.22 2.74 94 1013.8
20260509194553 67 286 1.0 4.0 0.11 3.21 2.73 94 1013.6
20260509194052 67 284 1.0 4.0 0.11 3.20 2.72 94 1013.7
20260509193552 66 0 1.0 4.0 0.11 3.19 2.71 94 1013.5
20260509193055 66 244 2.0 4.0 0.11 3.18 2.70 94 1013.4
20260509192555 66 177 1.0 4.0 0.11 3.17 2.69 94 1013.0
20260509192052 66 54 1.0 3.0 0.11 3.16 2.68 94 1013.3
20260509191553 66 0 0.0 3.0 0.11 3.15 2.67 94 1013.7
20260509191053 66 0 1.0 3.0 0.11 3.14 2.66 94 1013.8
20260509190551 66 0 0.0 2.0 0.11 3.13 2.65 94 1013.6
20260509190054 66 177 0.0 3.0 0.12 3.12 2.64 94 1013.5
20260509185552 66 295 0.0 3.0 0.12 3.11 2.63 94 1013.5
20260509185049 66 69 0.0 3.0 0.13 3.11 2.63 94 1013.4
20260509184553 66 77 0.0 3.0 0.13 3.10 2.62 94 1013.4
20260509184052 65 0 0.0 3.0 0.13 3.09 2.61 94 1013.6
20260509183552 65 250 0.0 3.0 0.13 3.08 2.60 94 1013.8
20260509183052 65 0 1.0 4.0 0.13 3.07 2.59 94 1014.1
20260509182552 65 248 1.0 4.0 0.14 3.06 2.58 94 1013.8
20260509182051 65 135 0.0 3.0 0.14 3.05 2.57 94 1013.6
20260509181552 65 0 1.0 6.0 0.14 3.04 2.56 94 1013.1
20260509181049 65 0 1.0 6.0 0.15 3.03 2.55 94 1013.4
20260509180551 65 115 2.0 7.0 0.15 3.02 2.54 94 1013.2
20260509180054 65 148 1.0 7.0 0.14 3.00 2.52 94 1013.1
20260509175551 65 122 2.0 6.0 0.15 2.99 2.51 94 1012.9
20260509175052 65 116 2.0 6.0 0.15 2.98 2.50 94 1013.6
20260509174552 65 220 2.0 5.0 0.16 2.97 2.49 94 1013.4
20260509174051 65 200 0.0 6.0 0.16 2.96 2.48 94 1013.1
20260509173552 65 132 2.0 6.0 0.17 2.95 2.47 94 1013.0
20260509173118 65 53 1.0 5.0 0.18 2.94 2.46 94 1013.5
20260509172549 65 0 1.0 7.0 0.17 2.92 2.44 94 1013.6
20260509172051 65 10 1.0 7.0 0.18 2.91 2.43 94 1013.7
20260509171549 65 126 1.0 4.0 0.18 2.90 2.42 94 1013.9
20260509171051 65 220 1.0 4.0 0.18 2.88 2.40 94 1013.7
20260509170553 65 0 1.0 7.0 0.18 2.87 2.39 94 1013.7
20260509165551 65 121 4.0 9.0 0.18 2.84 2.35 94 1013.3
20260509165048 65 87 2.0 7.0 0.19 2.83 2.34 94 1013.2
20260509164559 65 158 0.0 7.0 0.19 2.81 2.33 94 1013.7
20260509164049 65 94 2.0 7.0 0.18 2.79 2.31 94 1013.7
20260509163552 65 295 1.0 7.0 0.19 2.78 2.30 94 1013.8
20260509163054 65 173 2.0 11.0 0.19 2.76 2.28 94 1013.2
20260509162552 65 181 3.0 11.0 0.20 2.75 2.27 94 1013.1
20260509162055 65 60 1.0 6.0 0.20 2.73 2.25 94 1013.5
20260509161554 64 117 1.0 10.0 0.20 2.72 2.24 94 1014.3
20260509161050 64 118 2.0 10.0 0.20 2.70 2.22 94 1014.2
20260509160549 64 108 4.0 10.0 0.21 2.69 2.21 94 1013.8
20260509160053 65 92 2.0 10.0 0.22 2.67 2.19 94 1013.7
20260509155551 65 111 2.0 9.0 0.23 2.66 2.18 94 1014.0
20260509155050 65 97 3.0 9.0 0.24 2.64 2.16 94 1014.2
20260509154551 65 79 3.0 9.0 0.25 2.62 2.14 94 1014.3
20260509154052 65 297 1.0 8.0 0.27 2.61 2.13 94 1014.6
20260509153551 65 81 2.0 8.0 0.27 2.59 2.10 94 1014.5
20260509153056 65 119 2.0 9.0 0.28 2.57 2.08 93 1014.4
20260509152552 65 80 2.0 9.0 0.29 2.55 2.07 94 1014.4
20260509152052 65 128 2.0 9.0 0.30 2.53 2.05 94 1014.4
20260509151616 65 0 1.0 9.0 0.31 2.52 2.04 94 1014.4
20260509151053 65 133 2.0 10.0 0.32 2.50 2.02 94 1014.1
20260509150552 65 0 1.0 11.0 0.32 2.47 1.99 94 1014.1
20260509150054 65 121 3.0 11.0 0.34 2.45 1.97 94 1013.9
20260509145550 65 94 2.0 9.0 0.35 2.43 1.95 94 1014.0
20260509145049 65 115 2.0 9.0 0.36 2.40 1.92 94 1013.6
20260509144552 65 94 2.0 8.0 0.37 2.36 1.89 94 1013.4
20260509144054 65 93 3.0 8.0 0.38 2.33 1.86 94 1013.6
20260509143550 65 86 2.0 6.0 0.39 2.31 1.83 93 1013.9
20260509143103 65 0 0.0 4.0 0.41 2.28 1.80 93 1014.2
20260509142553 65 111 0.0 6.0 0.43 2.26 1.78 93 1014.1